Tracking 29892 objects as of 21-Nov-2024
HD Live streaming from Space Station
objects crossing your sky now

ONEWEB-0042

Track ONEWEB-0042 now!
10-day predictions
ONEWEB-0042 is classified as:


NORAD ID: 45441
Int'l Code: 2020-020T
Perigee: 1,223.7 km
Apogee: 1,226.0 km
Inclination: 87.9 °
Period: 109.8 minutes
Semi major axis: 7595 km
RCS: Unknown
Launch date: March 21, 2020
Source: United Kingdom (UK)
Launch site: TYURATAM MISSILE AND SPACE COMPLEX (TTMTR)
Your satellite tracking list
Your tracking list is empty




NASA's NSSDC Master Catalog

Two Line Element Set (TLE):
1 45441U 20020T   24325.90516672 -.00000230  00000-0 -68462-3 0  9990
2 45441  87.8879 135.2731 0001540  90.8227 269.3077 13.11415684227534
Source of the keplerian elements: AFSPC